owner,sensor,date,latitude,longitude,vertical_datum,sea_water_temperature,qcFlag 
WAVCIS,ioos:station:WAVCIS:CSI16:2,2009-05-01T00:00:00Z,29.4012,-89.0355,10.0,23.393,11111222 
WAVCIS,ioos:station:WAVCIS:CSI16:2,2009-05-01T00:15:00Z,29.4012,-89.0355,10.0,23.425,11111222 
WAVCIS,ioos:station:WAVCIS:CSI16:2,2009-05-01T00:30:00Z,29.4012,-89.0355,10.0,23.408,11111222 
WAVCIS,ioos:station:WAVCIS:CSI16:2,2009-05-01T00:45:00Z,29.4012,-89.0355,10.0,23.351,11111222 
WAVCIS,ioos:station:WAVCIS:CSI16:2,2009-05-01T01:00:00Z,29.4012,-89.0355,10.0,23.344,11111222 
WAVCIS,ioos:station:WAVCIS:CSI16:2,2009-05-01T01:15:00Z,29.4012,-89.0355,10.0,23.316,11111222 
WAVCIS,ioos:station:WAVCIS:CSI16:2,2009-05-01T01:30:00Z,29.4012,-89.0355,10.0,23.304,11111222 
WAVCIS,ioos:station:WAVCIS:CSI16:2,2009-05-01T01:45:00Z,29.4012,-89.0355,10.0,23.241,11111222 
WAVCIS,ioos:station:WAVCIS:CSI16:2,2009-05-01T02:00:00Z,29.4012,-89.0355,10.0,23.211,11111222 
WAVCIS,ioos:station:WAVCIS:CSI16:2,2009-05-01T02:15:00Z,29.4012,-89.0355,10.0,23.234,11111222 
WAVCIS,ioos:station:WAVCIS:CSI16:2,2009-05-01T02:30:00Z,29.4012,-89.0355,10.0,23.253,11111222 
WAVCIS,ioos:station:WAVCIS:CSI16:2,2009-05-01T02:45:00Z,29.4012,-89.0355,10.0,23.221,11111222 
WAVCIS,ioos:station:WAVCIS:CSI16:2,2009-05-01T03:00:00Z,29.4012,-89.0355,10.0,23.145,11111222 
WAVCIS,ioos:station:WAVCIS:CSI16:2,2009-05-01T03:15:00Z,29.4012,-89.0355,10.0,23.161,11111222 
WAVCIS,ioos:station:WAVCIS:CSI16:2,2009-05-01T03:30:00Z,29.4012,-89.0355,10.0,23.192,11111222 
WAVCIS,ioos:station:WAVCIS:CSI16:2,2009-05-01T03:45:00Z,29.4012,-89.0355,10.0,23.188,11111222 
WAVCIS,ioos:station:WAVCIS:CSI16:2,2009-05-01T04:00:00Z,29.4012,-89.0355,10.0,23.22,11111222 
WAVCIS,ioos:station:WAVCIS:CSI16:2,2009-05-01T04:15:00Z,29.4012,-89.0355,10.0,23.254,11111222 
WAVCIS,ioos:station:WAVCIS:CSI16:2,2009-05-01T04:30:00Z,29.4012,-89.0355,10.0,23.281,11111222 
WAVCIS,ioos:station:WAVCIS:CSI16:2,2009-05-01T04:45:00Z,29.4012,-89.0355,10.0,23.319,11111222 
WAVCIS,ioos:station:WAVCIS:CSI16:2,2009-05-01T05:00:00Z,29.4012,-89.0355,10.0,23.331,11111222 
WAVCIS,ioos:station:WAVCIS:CSI16:2,2009-05-01T05:15:00Z,29.4012,-89.0355,10.0,23.332,11111222 
WAVCIS,ioos:station:WAVCIS:CSI16:2,2009-05-01T05:30:00Z,29.4012,-89.0355,10.0,23.307,11111222 
WAVCIS,ioos:station:WAVCIS:CSI16:2,2009-05-01T05:45:00Z,29.4012,-89.0355,10.0,23.266,11111222 
WAVCIS,ioos:station:WAVCIS:CSI16:2,2009-05-01T06:00:00Z,29.4012,-89.0355,10.0,23.204,11111222 
WAVCIS,ioos:station:WAVCIS:CSI16:2,2009-05-01T06:15:00Z,29.4012,-89.0355,10.0,23.166,11111222 
WAVCIS,ioos:station:WAVCIS:CSI16:2,2009-05-01T06:30:00Z,29.4012,-89.0355,10.0,23.169,11111222 
WAVCIS,ioos:station:WAVCIS:CSI16:2,2009-05-01T06:45:00Z,29.4012,-89.0355,10.0,23.169,11111222 
WAVCIS,ioos:station:WAVCIS:CSI16:2,2009-05-01T07:00:00Z,29.4012,-89.0355,10.0,23.143,11111222 
WAVCIS,ioos:station:WAVCIS:CSI16:2,2009-05-01T07:15:00Z,29.4012,-89.0355,10.0,23.172,11111222 
WAVCIS,ioos:station:WAVCIS:CSI16:2,2009-05-01T07:30:00Z,29.4012,-89.0355,10.0,23.181,11111222 
WAVCIS,ioos:station:WAVCIS:CSI16:2,2009-05-01T07:45:00Z,29.4012,-89.0355,10.0,23.211,11111222 
WAVCIS,ioos:station:WAVCIS:CSI16:2,2009-05-01T08:00:00Z,29.4012,-89.0355,10.0,23.267,11111222 
WAVCIS,ioos:station:WAVCIS:CSI16:2,2009-05-01T08:15:00Z,29.4012,-89.0355,10.0,23.367,11111222 
WAVCIS,ioos:station:WAVCIS:CSI16:2,2009-05-01T08:30:00Z,29.4012,-89.0355,10.0,23.72,11111222 
WAVCIS,ioos:station:WAVCIS:CSI16:2,2009-05-01T08:45:00Z,29.4012,-89.0355,10.0,23.458,11111222 
WAVCIS,ioos:station:WAVCIS:CSI16:2,2009-05-01T09:00:00Z,29.4012,-89.0355,10.0,23.552,11111222 
WAVCIS,ioos:station:WAVCIS:CSI16:2,2009-05-01T09:15:00Z,29.4012,-89.0355,10.0,23.486,11111222 
WAVCIS,ioos:station:WAVCIS:CSI16:2,2009-05-01T09:30:00Z,29.4012,-89.0355,10.0,23.301,11111222 
WAVCIS,ioos:station:WAVCIS:CSI16:2,2009-05-01T09:45:00Z,29.4012,-89.0355,10.0,23.219,11111222 
WAVCIS,ioos:station:WAVCIS:CSI16:2,2009-05-01T10:00:00Z,29.4012,-89.0355,10.0,23.199,11111222 
WAVCIS,ioos:station:WAVCIS:CSI16:2,2009-05-01T10:15:00Z,29.4012,-89.0355,10.0,23.131,11111222 
WAVCIS,ioos:station:WAVCIS:CSI16:2,2009-05-01T10:30:00Z,29.4012,-89.0355,10.0,23.12,11111222 
WAVCIS,ioos:station:WAVCIS:CSI16:2,2009-05-01T10:45:00Z,29.4012,-89.0355,10.0,23.105,11111222 
WAVCIS,ioos:station:WAVCIS:CSI16:2,2009-05-01T11:00:00Z,29.4012,-89.0355,10.0,23.093,11111222 
WAVCIS,ioos:station:WAVCIS:CSI16:2,2009-05-01T11:15:00Z,29.4012,-89.0355,10.0,23.095,11111222 
WAVCIS,ioos:station:WAVCIS:CSI16:2,2009-05-01T11:30:00Z,29.4012,-89.0355,10.0,23.081,11111222 
WAVCIS,ioos:station:WAVCIS:CSI16:2,2009-05-01T11:45:00Z,29.4012,-89.0355,10.0,23.064,11111222 
WAVCIS,ioos:station:WAVCIS:CSI16:2,2009-05-01T12:00:00Z,29.4012,-89.0355,10.0,23.039,11111222 
WAVCIS,ioos:station:WAVCIS:CSI16:2,2009-05-01T12:15:00Z,29.4012,-89.0355,10.0,23.033,11111222 
WAVCIS,ioos:station:WAVCIS:CSI16:2,2009-05-01T12:30:00Z,29.4012,-89.0355,10.0,23.049,11111222 
WAVCIS,ioos:station:WAVCIS:CSI16:2,2009-05-01T12:45:00Z,29.4012,-89.0355,10.0,23.049,11111222 
WAVCIS,ioos:station:WAVCIS:CSI16:2,2009-05-01T13:00:00Z,29.4012,-89.0355,10.0,23.057,11111222 
WAVCIS,ioos:station:WAVCIS:CSI16:2,2009-05-01T13:15:00Z,29.4012,-89.0355,10.0,23.067,11111222 
WAVCIS,ioos:station:WAVCIS:CSI16:2,2009-05-01T13:30:00Z,29.4012,-89.0355,10.0,23.079,11111222 
WAVCIS,ioos:station:WAVCIS:CSI16:2,2009-05-01T13:45:00Z,29.4012,-89.0355,10.0,23.1,11111222 
WAVCIS,ioos:station:WAVCIS:CSI16:2,2009-05-01T14:00:00Z,29.4012,-89.0355,10.0,23.107,11111222 
WAVCIS,ioos:station:WAVCIS:CSI16:2,2009-05-01T14:15:00Z,29.4012,-89.0355,10.0,23.114,11111222 
WAVCIS,ioos:station:WAVCIS:CSI16:2,2009-05-01T14:30:00Z,29.4012,-89.0355,10.0,23.123,11111222 
WAVCIS,ioos:station:WAVCIS:CSI16:2,2009-05-01T14:45:00Z,29.4012,-89.0355,10.0,23.206,11111222 
WAVCIS,ioos:station:WAVCIS:CSI16:2,2009-05-01T15:00:00Z,29.4012,-89.0355,10.0,23.297,11111222 
WAVCIS,ioos:station:WAVCIS:CSI16:2,2009-05-01T15:15:00Z,29.4012,-89.0355,10.0,23.305,11111222 
WAVCIS,ioos:station:WAVCIS:CSI16:2,2009-05-01T15:30:00Z,29.4012,-89.0355,10.0,23.332,11111222 
WAVCIS,ioos:station:WAVCIS:CSI16:2,2009-05-01T15:45:00Z,29.4012,-89.0355,10.0,23.33,11111222 
WAVCIS,ioos:station:WAVCIS:CSI16:2,2009-05-01T16:00:00Z,29.4012,-89.0355,10.0,23.318,11111222 
WAVCIS,ioos:station:WAVCIS:CSI16:2,2009-05-01T16:15:00Z,29.4012,-89.0355,10.0,23.293,11111222 
WAVCIS,ioos:station:WAVCIS:CSI16:2,2009-05-01T16:30:00Z,29.4012,-89.0355,10.0,23.267,11111222 
WAVCIS,ioos:station:WAVCIS:CSI16:2,2009-05-01T16:45:00Z,29.4012,-89.0355,10.0,23.243,11111222 
WAVCIS,ioos:station:WAVCIS:CSI16:2,2009-05-01T17:00:00Z,29.4012,-89.0355,10.0,23.208,11111222 
WAVCIS,ioos:station:WAVCIS:CSI16:2,2009-05-01T17:15:00Z,29.4012,-89.0355,10.0,23.191,11111222 
WAVCIS,ioos:station:WAVCIS:CSI16:2,2009-05-01T17:30:00Z,29.4012,-89.0355,10.0,23.194,11111222 
WAVCIS,ioos:station:WAVCIS:CSI16:2,2009-05-01T17:45:00Z,29.4012,-89.0355,10.0,23.106,11111222 
WAVCIS,ioos:station:WAVCIS:CSI16:2,2009-05-01T18:00:00Z,29.4012,-89.0355,10.0,23.101,11111222 
WAVCIS,ioos:station:WAVCIS:CSI16:2,2009-05-01T18:15:00Z,29.4012,-89.0355,10.0,23.094,11111222 
WAVCIS,ioos:station:WAVCIS:CSI16:2,2009-05-01T18:30:00Z,29.4012,-89.0355,10.0,23.08,11111222 
WAVCIS,ioos:station:WAVCIS:CSI16:2,2009-05-01T18:45:00Z,29.4012,-89.0355,10.0,23.073,11111222 
WAVCIS,ioos:station:WAVCIS:CSI16:2,2009-05-01T19:00:00Z,29.4012,-89.0355,10.0,23.063,11111222 
WAVCIS,ioos:station:WAVCIS:CSI16:2,2009-05-01T19:15:00Z,29.4012,-89.0355,10.0,23.058,11111222 
WAVCIS,ioos:station:WAVCIS:CSI16:2,2009-05-01T19:30:00Z,29.4012,-89.0355,10.0,23.051,11111222 
WAVCIS,ioos:station:WAVCIS:CSI16:2,2009-05-01T19:45:00Z,29.4012,-89.0355,10.0,23.047,11111222 
WAVCIS,ioos:station:WAVCIS:CSI16:2,2009-05-01T20:00:00Z,29.4012,-89.0355,10.0,23.043,11111222 
WAVCIS,ioos:station:WAVCIS:CSI16:2,2009-05-01T20:15:00Z,29.4012,-89.0355,10.0,23.038,11111222 
WAVCIS,ioos:station:WAVCIS:CSI16:2,2009-05-01T20:30:00Z,29.4012,-89.0355,10.0,23.036,11111222 
WAVCIS,ioos:station:WAVCIS:CSI16:2,2009-05-01T20:45:00Z,29.4012,-89.0355,10.0,23.033,11111222 
WAVCIS,ioos:station:WAVCIS:CSI16:2,2009-05-01T21:00:00Z,29.4012,-89.0355,10.0,23.031,11111222 
WAVCIS,ioos:station:WAVCIS:CSI16:2,2009-05-01T21:15:00Z,29.4012,-89.0355,10.0,23.026,11111222 
WAVCIS,ioos:station:WAVCIS:CSI16:2,2009-05-01T21:30:00Z,29.4012,-89.0355,10.0,23.023,11111222 
WAVCIS,ioos:station:WAVCIS:CSI16:2,2009-05-01T21:45:00Z,29.4012,-89.0355,10.0,23.024,11111222 
WAVCIS,ioos:station:WAVCIS:CSI16:2,2009-05-01T22:00:00Z,29.4012,-89.0355,10.0,23.021,11111222 
WAVCIS,ioos:station:WAVCIS:CSI16:2,2009-05-01T22:15:00Z,29.4012,-89.0355,10.0,23.017,11111222 
WAVCIS,ioos:station:WAVCIS:CSI16:2,2009-05-01T22:30:00Z,29.4012,-89.0355,10.0,23.02,11111222 
WAVCIS,ioos:station:WAVCIS:CSI16:2,2009-05-01T22:45:00Z,29.4012,-89.0355,10.0,23.02,11111222 
WAVCIS,ioos:station:WAVCIS:CSI16:2,2009-05-01T23:00:00Z,29.4012,-89.0355,10.0,23.016,11111222 
WAVCIS,ioos:station:WAVCIS:CSI16:2,2009-05-01T23:15:00Z,29.4012,-89.0355,10.0,23.014,11111222 
WAVCIS,ioos:station:WAVCIS:CSI16:2,2009-05-01T23:30:00Z,29.4012,-89.0355,10.0,23.017,11111222 
WAVCIS,ioos:station:WAVCIS:CSI16:2,2009-05-01T23:45:00Z,29.4012,-89.0355,10.0,23.021,11111222 
WAVCIS,ioos:station:WAVCIS:CSI16:2,2009-05-02T00:00:00Z,29.4012,-89.0355,10.0,23.028,11111222 
WAVCIS,ioos:station:WAVCIS:CSI16:2,2009-05-02T00:15:00Z,29.4012,-89.0355,10.0,23.04,11111222 
WAVCIS,ioos:station:WAVCIS:CSI16:2,2009-05-02T00:30:00Z,29.4012,-89.0355,10.0,23.038,11111222 
WAVCIS,ioos:station:WAVCIS:CSI16:2,2009-05-02T00:45:00Z,29.4012,-89.0355,10.0,23.053,11111222 
WAVCIS,ioos:station:WAVCIS:CSI16:2,2009-05-02T01:00:00Z,29.4012,-89.0355,10.0,23.1,11111222 
WAVCIS,ioos:station:WAVCIS:CSI16:2,2009-05-02T01:15:00Z,29.4012,-89.0355,10.0,23.139,11111222 
WAVCIS,ioos:station:WAVCIS:CSI16:2,2009-05-02T01:30:00Z,29.4012,-89.0355,10.0,23.187,11111222 
WAVCIS,ioos:station:WAVCIS:CSI16:2,2009-05-02T01:45:00Z,29.4012,-89.0355,10.0,23.153,11111222 
WAVCIS,ioos:station:WAVCIS:CSI16:2,2009-05-02T02:00:00Z,29.4012,-89.0355,10.0,23.15,11111222 
WAVCIS,ioos:station:WAVCIS:CSI16:2,2009-05-02T02:15:00Z,29.4012,-89.0355,10.0,23.159,11111222 
WAVCIS,ioos:station:WAVCIS:CSI16:2,2009-05-02T02:30:00Z,29.4012,-89.0355,10.0,23.155,11111222 
WAVCIS,ioos:station:WAVCIS:CSI16:2,2009-05-02T02:45:00Z,29.4012,-89.0355,10.0,23.2,11111222 
WAVCIS,ioos:station:WAVCIS:CSI16:2,2009-05-02T03:00:00Z,29.4012,-89.0355,10.0,23.196,11111222 
WAVCIS,ioos:station:WAVCIS:CSI16:2,2009-05-02T03:15:00Z,29.4012,-89.0355,10.0,23.166,11111222 
WAVCIS,ioos:station:WAVCIS:CSI16:2,2009-05-02T03:30:00Z,29.4012,-89.0355,10.0,23.163,11111222 
WAVCIS,ioos:station:WAVCIS:CSI16:2,2009-05-02T03:45:00Z,29.4012,-89.0355,10.0,23.169,11111222 
WAVCIS,ioos:station:WAVCIS:CSI16:2,2009-05-02T04:00:00Z,29.4012,-89.0355,10.0,23.17,11111222 
WAVCIS,ioos:station:WAVCIS:CSI16:2,2009-05-02T04:15:00Z,29.4012,-89.0355,10.0,23.14,11111222 
WAVCIS,ioos:station:WAVCIS:CSI16:2,2009-05-02T04:30:00Z,29.4012,-89.0355,10.0,23.146,11111222 
WAVCIS,ioos:station:WAVCIS:CSI16:2,2009-05-02T04:45:00Z,29.4012,-89.0355,10.0,23.114,11111222 
WAVCIS,ioos:station:WAVCIS:CSI16:2,2009-05-02T05:00:00Z,29.4012,-89.0355,10.0,23.108,11111222 
WAVCIS,ioos:station:WAVCIS:CSI16:2,2009-05-02T05:15:00Z,29.4012,-89.0355,10.0,23.107,11111222 
WAVCIS,ioos:station:WAVCIS:CSI16:2,2009-05-02T05:30:00Z,29.4012,-89.0355,10.0,23.11,11111222 
WAVCIS,ioos:station:WAVCIS:CSI16:2,2009-05-02T05:45:00Z,29.4012,-89.0355,10.0,23.097,11111222 
WAVCIS,ioos:station:WAVCIS:CSI16:2,2009-05-02T06:00:00Z,29.4012,-89.0355,10.0,23.09,11111222 
WAVCIS,ioos:station:WAVCIS:CSI16:2,2009-05-02T06:15:00Z,29.4012,-89.0355,10.0,23.108,11111222 
WAVCIS,ioos:station:WAVCIS:CSI16:2,2009-05-02T06:30:00Z,29.4012,-89.0355,10.0,23.095,11111222 
WAVCIS,ioos:station:WAVCIS:CSI16:2,2009-05-02T06:45:00Z,29.4012,-89.0355,10.0,23.117,11111222 
WAVCIS,ioos:station:WAVCIS:CSI16:2,2009-05-02T07:00:00Z,29.4012,-89.0355,10.0,23.122,11111222 
WAVCIS,ioos:station:WAVCIS:CSI16:2,2009-05-02T07:15:00Z,29.4012,-89.0355,10.0,23.139,11111222 
WAVCIS,ioos:station:WAVCIS:CSI16:2,2009-05-02T07:30:00Z,29.4012,-89.0355,10.0,23.143,11111222 
WAVCIS,ioos:station:WAVCIS:CSI16:2,2009-05-02T07:45:00Z,29.4012,-89.0355,10.0,23.142,11111222 
WAVCIS,ioos:station:WAVCIS:CSI16:2,2009-05-02T08:00:00Z,29.4012,-89.0355,10.0,23.133,11111222 
WAVCIS,ioos:station:WAVCIS:CSI16:2,2009-05-02T08:15:00Z,29.4012,-89.0355,10.0,23.134,11111222 
WAVCIS,ioos:station:WAVCIS:CSI16:2,2009-05-02T08:30:00Z,29.4012,-89.0355,10.0,23.148,11111222 
WAVCIS,ioos:station:WAVCIS:CSI16:2,2009-05-02T08:45:00Z,29.4012,-89.0355,10.0,23.132,11111222 
WAVCIS,ioos:station:WAVCIS:CSI16:2,2009-05-02T09:00:00Z,29.4012,-89.0355,10.0,23.143,11111222 
WAVCIS,ioos:station:WAVCIS:CSI16:2,2009-05-02T09:15:00Z,29.4012,-89.0355,10.0,23.136,11111222 
WAVCIS,ioos:station:WAVCIS:CSI16:2,2009-05-02T09:30:00Z,29.4012,-89.0355,10.0,23.163,11111222 
WAVCIS,ioos:station:WAVCIS:CSI16:2,2009-05-02T09:45:00Z,29.4012,-89.0355,10.0,23.19,11111222 
WAVCIS,ioos:station:WAVCIS:CSI16:2,2009-05-02T10:00:00Z,29.4012,-89.0355,10.0,23.157,11111222 
WAVCIS,ioos:station:WAVCIS:CSI16:2,2009-05-02T10:15:00Z,29.4012,-89.0355,10.0,23.162,11111222 
WAVCIS,ioos:station:WAVCIS:CSI16:2,2009-05-02T10:30:00Z,29.4012,-89.0355,10.0,23.186,11111222 
WAVCIS,ioos:station:WAVCIS:CSI16:2,2009-05-02T10:45:00Z,29.4012,-89.0355,10.0,23.184,11111222 
WAVCIS,ioos:station:WAVCIS:CSI16:2,2009-05-02T11:00:00Z,29.4012,-89.0355,10.0,23.182,11111222 
WAVCIS,ioos:station:WAVCIS:CSI16:2,2009-05-02T11:15:00Z,29.4012,-89.0355,10.0,23.211,11111222 
WAVCIS,ioos:station:WAVCIS:CSI16:2,2009-05-02T11:30:00Z,29.4012,-89.0355,10.0,23.237,11111222 
WAVCIS,ioos:station:WAVCIS:CSI16:2,2009-05-02T11:45:00Z,29.4012,-89.0355,10.0,23.235,11111222 
WAVCIS,ioos:station:WAVCIS:CSI16:2,2009-05-02T12:00:00Z,29.4012,-89.0355,10.0,23.226,11111222 
WAVCIS,ioos:station:WAVCIS:CSI16:2,2009-05-02T12:15:00Z,29.4012,-89.0355,10.0,23.233,11111222 
WAVCIS,ioos:station:WAVCIS:CSI16:2,2009-05-02T12:30:00Z,29.4012,-89.0355,10.0,23.241,11111222 
WAVCIS,ioos:station:WAVCIS:CSI16:2,2009-05-02T12:45:00Z,29.4012,-89.0355,10.0,23.244,11111222 
WAVCIS,ioos:station:WAVCIS:CSI16:2,2009-05-02T13:00:00Z,29.4012,-89.0355,10.0,23.232,11111222 
WAVCIS,ioos:station:WAVCIS:CSI16:2,2009-05-02T13:15:00Z,29.4012,-89.0355,10.0,23.237,11111222 
WAVCIS,ioos:station:WAVCIS:CSI16:2,2009-05-02T13:30:00Z,29.4012,-89.0355,10.0,23.228,11111222 
WAVCIS,ioos:station:WAVCIS:CSI16:2,2009-05-02T13:45:00Z,29.4012,-89.0355,10.0,23.246,11111222 
WAVCIS,ioos:station:WAVCIS:CSI16:2,2009-05-02T14:00:00Z,29.4012,-89.0355,10.0,23.242,11111222 
WAVCIS,ioos:station:WAVCIS:CSI16:2,2009-05-02T14:15:00Z,29.4012,-89.0355,10.0,23.24,11111222 
WAVCIS,ioos:station:WAVCIS:CSI16:2,2009-05-02T14:30:00Z,29.4012,-89.0355,10.0,23.236,11111222 
WAVCIS,ioos:station:WAVCIS:CSI16:2,2009-05-02T14:45:00Z,29.4012,-89.0355,10.0,23.216,11111222 
WAVCIS,ioos:station:WAVCIS:CSI16:2,2009-05-02T15:00:00Z,29.4012,-89.0355,10.0,23.214,11111222 
WAVCIS,ioos:station:WAVCIS:CSI16:2,2009-05-02T15:15:00Z,29.4012,-89.0355,10.0,23.2,11111222 
WAVCIS,ioos:station:WAVCIS:CSI16:2,2009-05-02T15:30:00Z,29.4012,-89.0355,10.0,23.19,11111222 
WAVCIS,ioos:station:WAVCIS:CSI16:2,2009-05-02T15:45:00Z,29.4012,-89.0355,10.0,23.179,11111222 
WAVCIS,ioos:station:WAVCIS:CSI16:2,2009-05-02T16:00:00Z,29.4012,-89.0355,10.0,23.172,11111222 
WAVCIS,ioos:station:WAVCIS:CSI16:2,2009-05-02T16:15:00Z,29.4012,-89.0355,10.0,23.163,11111222 
WAVCIS,ioos:station:WAVCIS:CSI16:2,2009-05-02T16:30:00Z,29.4012,-89.0355,10.0,23.156,11111222 
WAVCIS,ioos:station:WAVCIS:CSI16:2,2009-05-02T16:45:00Z,29.4012,-89.0355,10.0,23.144,11111222 
WAVCIS,ioos:station:WAVCIS:CSI16:2,2009-05-02T17:00:00Z,29.4012,-89.0355,10.0,23.134,11111222 
WAVCIS,ioos:station:WAVCIS:CSI16:2,2009-05-02T17:15:00Z,29.4012,-89.0355,10.0,23.122,11111222 
WAVCIS,ioos:station:WAVCIS:CSI16:2,2009-05-02T17:30:00Z,29.4012,-89.0355,10.0,23.115,11111222 
WAVCIS,ioos:station:WAVCIS:CSI16:2,2009-05-02T17:45:00Z,29.4012,-89.0355,10.0,23.113,11111222 
WAVCIS,ioos:station:WAVCIS:CSI16:2,2009-05-02T18:00:00Z,29.4012,-89.0355,10.0,23.128,11111222 
WAVCIS,ioos:station:WAVCIS:CSI16:2,2009-05-02T18:15:00Z,29.4012,-89.0355,10.0,23.098,11111222 
WAVCIS,ioos:station:WAVCIS:CSI16:2,2009-05-02T18:30:00Z,29.4012,-89.0355,10.0,23.126,11111222 
WAVCIS,ioos:station:WAVCIS:CSI16:2,2009-05-02T18:45:00Z,29.4012,-89.0355,10.0,23.091,11111222 
WAVCIS,ioos:station:WAVCIS:CSI16:2,2009-05-02T19:00:00Z,29.4012,-89.0355,10.0,23.105,11111222 
WAVCIS,ioos:station:WAVCIS:CSI16:2,2009-05-02T19:15:00Z,29.4012,-89.0355,10.0,23.079,11111222 
WAVCIS,ioos:station:WAVCIS:CSI16:2,2009-05-02T19:30:00Z,29.4012,-89.0355,10.0,23.096,11111222 
WAVCIS,ioos:station:WAVCIS:CSI16:2,2009-05-02T19:45:00Z,29.4012,-89.0355,10.0,23.112,11111222 
WAVCIS,ioos:station:WAVCIS:CSI16:2,2009-05-02T20:00:00Z,29.4012,-89.0355,10.0,23.123,11111222 
WAVCIS,ioos:station:WAVCIS:CSI16:2,2009-05-02T20:15:00Z,29.4012,-89.0355,10.0,23.092,11111222 
WAVCIS,ioos:station:WAVCIS:CSI16:2,2009-05-02T20:30:00Z,29.4012,-89.0355,10.0,23.09,11111222 
WAVCIS,ioos:station:WAVCIS:CSI16:2,2009-05-02T20:45:00Z,29.4012,-89.0355,10.0,23.078,11111222 
WAVCIS,ioos:station:WAVCIS:CSI16:2,2009-05-02T21:00:00Z,29.4012,-89.0355,10.0,23.082,11111222 
WAVCIS,ioos:station:WAVCIS:CSI16:2,2009-05-02T21:15:00Z,29.4012,-89.0355,10.0,23.06,11111222 
WAVCIS,ioos:station:WAVCIS:CSI16:2,2009-05-02T21:30:00Z,29.4012,-89.0355,10.0,23.118,11111222 
WAVCIS,ioos:station:WAVCIS:CSI16:2,2009-05-02T21:45:00Z,29.4012,-89.0355,10.0,23.045,11111222 
WAVCIS,ioos:station:WAVCIS:CSI16:2,2009-05-02T22:00:00Z,29.4012,-89.0355,10.0,23.042,11111222 
WAVCIS,ioos:station:WAVCIS:CSI16:2,2009-05-02T22:15:00Z,29.4012,-89.0355,10.0,23.044,11111222 
WAVCIS,ioos:station:WAVCIS:CSI16:2,2009-05-02T22:30:00Z,29.4012,-89.0355,10.0,23.04,11111222 
WAVCIS,ioos:station:WAVCIS:CSI16:2,2009-05-02T22:45:00Z,29.4012,-89.0355,10.0,23.044,11111222 
WAVCIS,ioos:station:WAVCIS:CSI16:2,2009-05-02T23:00:00Z,29.4012,-89.0355,10.0,23.054,11111222 
WAVCIS,ioos:station:WAVCIS:CSI16:2,2009-05-02T23:15:00Z,29.4012,-89.0355,10.0,23.053,11111222 
WAVCIS,ioos:station:WAVCIS:CSI16:2,2009-05-02T23:30:00Z,29.4012,-89.0355,10.0,23.041,11111222 
WAVCIS,ioos:station:WAVCIS:CSI16:2,2009-05-02T23:45:00Z,29.4012,-89.0355,10.0,23.045,11111222 
WAVCIS,ioos:station:WAVCIS:CSI16:2,2009-05-03T00:00:00Z,29.4012,-89.0355,10.0,23.036,11111222 
WAVCIS,ioos:station:WAVCIS:CSI16:2,2009-05-03T00:15:00Z,29.4012,-89.0355,10.0,23.033,11111222 
WAVCIS,ioos:station:WAVCIS:CSI16:2,2009-05-03T00:30:00Z,29.4012,-89.0355,10.0,23.02,11111222 
WAVCIS,ioos:station:WAVCIS:CSI16:2,2009-05-03T00:45:00Z,29.4012,-89.0355,10.0,23.01,11111222 
WAVCIS,ioos:station:WAVCIS:CSI16:2,2009-05-03T01:00:00Z,29.4012,-89.0355,10.0,22.997,11111222 
WAVCIS,ioos:station:WAVCIS:CSI16:2,2009-05-03T01:15:00Z,29.4012,-89.0355,10.0,22.993,11111222 
WAVCIS,ioos:station:WAVCIS:CSI16:2,2009-05-03T01:30:00Z,29.4012,-89.0355,10.0,22.982,11111222 
WAVCIS,ioos:station:WAVCIS:CSI16:2,2009-05-03T01:45:00Z,29.4012,-89.0355,10.0,22.988,11111222 
WAVCIS,ioos:station:WAVCIS:CSI16:2,2009-05-03T02:00:00Z,29.4012,-89.0355,10.0,22.987,11111222 
WAVCIS,ioos:station:WAVCIS:CSI16:2,2009-05-03T02:15:00Z,29.4012,-89.0355,10.0,22.961,11111222 
WAVCIS,ioos:station:WAVCIS:CSI16:2,2009-05-03T02:30:00Z,29.4012,-89.0355,10.0,22.953,11111222 
WAVCIS,ioos:station:WAVCIS:CSI16:2,2009-05-03T02:45:00Z,29.4012,-89.0355,10.0,22.958,11111222 
WAVCIS,ioos:station:WAVCIS:CSI16:2,2009-05-03T03:00:00Z,29.4012,-89.0355,10.0,22.959,11111222 
WAVCIS,ioos:station:WAVCIS:CSI16:2,2009-05-03T03:15:00Z,29.4012,-89.0355,10.0,22.957,11111222 
WAVCIS,ioos:station:WAVCIS:CSI16:2,2009-05-03T03:30:00Z,29.4012,-89.0355,10.0,22.954,11111222 
WAVCIS,ioos:station:WAVCIS:CSI16:2,2009-05-03T03:45:00Z,29.4012,-89.0355,10.0,22.952,11111222 
WAVCIS,ioos:station:WAVCIS:CSI16:2,2009-05-03T04:00:00Z,29.4012,-89.0355,10.0,22.954,11111222 
WAVCIS,ioos:station:WAVCIS:CSI16:2,2009-05-03T04:15:00Z,29.4012,-89.0355,10.0,22.952,11111222 
WAVCIS,ioos:station:WAVCIS:CSI16:2,2009-05-03T04:30:00Z,29.4012,-89.0355,10.0,22.952,11111222 
WAVCIS,ioos:station:WAVCIS:CSI16:2,2009-05-03T04:45:00Z,29.4012,-89.0355,10.0,22.953,11111222 
WAVCIS,ioos:station:WAVCIS:CSI16:2,2009-05-03T05:00:00Z,29.4012,-89.0355,10.0,22.944,11111222 
WAVCIS,ioos:station:WAVCIS:CSI16:2,2009-05-03T05:15:00Z,29.4012,-89.0355,10.0,22.945,11111222 
WAVCIS,ioos:station:WAVCIS:CSI16:2,2009-05-03T05:30:00Z,29.4012,-89.0355,10.0,22.94,11111222 
WAVCIS,ioos:station:WAVCIS:CSI16:2,2009-05-03T05:45:00Z,29.4012,-89.0355,10.0,22.94,11111222 
WAVCIS,ioos:station:WAVCIS:CSI16:2,2009-05-03T06:00:00Z,29.4012,-89.0355,10.0,22.934,11111222 
WAVCIS,ioos:station:WAVCIS:CSI16:2,2009-05-03T06:15:00Z,29.4012,-89.0355,10.0,22.934,11111222 
WAVCIS,ioos:station:WAVCIS:CSI16:2,2009-05-03T06:30:00Z,29.4012,-89.0355,10.0,22.93,11111222 
WAVCIS,ioos:station:WAVCIS:CSI16:2,2009-05-03T06:45:00Z,29.4012,-89.0355,10.0,22.933,11111222 
WAVCIS,ioos:station:WAVCIS:CSI16:2,2009-05-03T07:00:00Z,29.4012,-89.0355,10.0,22.916,11111222 
WAVCIS,ioos:station:WAVCIS:CSI16:2,2009-05-03T07:15:00Z,29.4012,-89.0355,10.0,22.909,11111222 
WAVCIS,ioos:station:WAVCIS:CSI16:2,2009-05-03T07:30:00Z,29.4012,-89.0355,10.0,22.904,11111222 
WAVCIS,ioos:station:WAVCIS:CSI16:2,2009-05-03T07:45:00Z,29.4012,-89.0355,10.0,22.903,11111222 
WAVCIS,ioos:station:WAVCIS:CSI16:2,2009-05-03T08:00:00Z,29.4012,-89.0355,10.0,22.876,11111222 
WAVCIS,ioos:station:WAVCIS:CSI16:2,2009-05-03T08:15:00Z,29.4012,-89.0355,10.0,22.842,11111222 
WAVCIS,ioos:station:WAVCIS:CSI16:2,2009-05-03T08:30:00Z,29.4012,-89.0355,10.0,22.853,11111222 
WAVCIS,ioos:station:WAVCIS:CSI16:2,2009-05-03T08:45:00Z,29.4012,-89.0355,10.0,22.859,11111222 
WAVCIS,ioos:station:WAVCIS:CSI16:2,2009-05-03T09:00:00Z,29.4012,-89.0355,10.0,22.795,11111222 
WAVCIS,ioos:station:WAVCIS:CSI16:2,2009-05-03T09:15:00Z,29.4012,-89.0355,10.0,22.85,11111222 
WAVCIS,ioos:station:WAVCIS:CSI16:2,2009-05-03T09:30:00Z,29.4012,-89.0355,10.0,22.86,11111222 
WAVCIS,ioos:station:WAVCIS:CSI16:2,2009-05-03T09:45:00Z,29.4012,-89.0355,10.0,22.806,11111222 
WAVCIS,ioos:station:WAVCIS:CSI16:2,2009-05-03T10:00:00Z,29.4012,-89.0355,10.0,22.811,11111222 
WAVCIS,ioos:station:WAVCIS:CSI16:2,2009-05-03T10:15:00Z,29.4012,-89.0355,10.0,22.822,11111222 
WAVCIS,ioos:station:WAVCIS:CSI16:2,2009-05-03T10:30:00Z,29.4012,-89.0355,10.0,22.816,11111222 
WAVCIS,ioos:station:WAVCIS:CSI16:2,2009-05-03T10:45:00Z,29.4012,-89.0355,10.0,22.821,11111222 
WAVCIS,ioos:station:WAVCIS:CSI16:2,2009-05-03T11:00:00Z,29.4012,-89.0355,10.0,22.81,11111222 
WAVCIS,ioos:station:WAVCIS:CSI16:2,2009-05-03T11:15:00Z,29.4012,-89.0355,10.0,22.81,11111222 
WAVCIS,ioos:station:WAVCIS:CSI16:2,2009-05-03T11:30:00Z,29.4012,-89.0355,10.0,22.806,11111222 
WAVCIS,ioos:station:WAVCIS:CSI16:2,2009-05-03T11:45:00Z,29.4012,-89.0355,10.0,22.858,11111222 
WAVCIS,ioos:station:WAVCIS:CSI16:2,2009-05-03T12:00:00Z,29.4012,-89.0355,10.0,22.798,11111222 
WAVCIS,ioos:station:WAVCIS:CSI16:2,2009-05-03T12:15:00Z,29.4012,-89.0355,10.0,22.795,11111222 
WAVCIS,ioos:station:WAVCIS:CSI16:2,2009-05-03T12:30:00Z,29.4012,-89.0355,10.0,22.79,11111222 
WAVCIS,ioos:station:WAVCIS:CSI16:2,2009-05-03T12:45:00Z,29.4012,-89.0355,10.0,22.811,11111222 
WAVCIS,ioos:station:WAVCIS:CSI16:2,2009-05-03T13:00:00Z,29.4012,-89.0355,10.0,22.803,11111222 
WAVCIS,ioos:station:WAVCIS:CSI16:2,2009-05-03T13:15:00Z,29.4012,-89.0355,10.0,22.801,11111222 
WAVCIS,ioos:station:WAVCIS:CSI16:2,2009-05-03T13:30:00Z,29.4012,-89.0355,10.0,22.781,11111222 
WAVCIS,ioos:station:WAVCIS:CSI16:2,2009-05-03T13:45:00Z,29.4012,-89.0355,10.0,22.778,11111222 
WAVCIS,ioos:station:WAVCIS:CSI16:2,2009-05-03T14:00:00Z,29.4012,-89.0355,10.0,22.792,11111222 
WAVCIS,ioos:station:WAVCIS:CSI16:2,2009-05-03T14:15:00Z,29.4012,-89.0355,10.0,22.785,11111222 
WAVCIS,ioos:station:WAVCIS:CSI16:2,2009-05-03T14:30:00Z,29.4012,-89.0355,10.0,22.771,11111222 
WAVCIS,ioos:station:WAVCIS:CSI16:2,2009-05-03T14:45:00Z,29.4012,-89.0355,10.0,22.803,11111222 